Location: Unspecified
(0.0000°N, 0.0000°E)
Time: 01:28:30
(UTC+00:00)

Explorer 11/Cluster Stage 4 - Pass Details

Date: 22 November 2019
Orbit: 467 x 1259 km, 28.8° (Epoch: 11 December)

Event Time Altitude Azimuth Distance (km) Brightness Sun altitude
Rises 22:57:02 0° 331° (NNW) 3,698 - -66.5°
Reaches altitude 10° 23:01:01 10° 354° (N) 2,908 - -67.0°
Maximum altitude 23:04:55 15° 27° (NNE) 2,677 - -67.4°
Drops below altitude 10° 23:09:03 10° 58° (ENE) 3,140 - -67.8°
Sets 23:13:38 0° 80° (E) 4,177 - -68.3°
